www.pogodaiklimat.ru

Погода и климат >> Архив погоды >> Россия >> Карелия >> Пудож


ПОГОДА в Пудоже

  • Прогноз погоды в Пудоже
  • Монитор погоды в Пудоже

АРХИВ ПОГОДЫ в Пудоже

Время (UTC), дата Ветер
(напр.,м/с)
 
Видим.   Явления Облачность Т
(С)
Тd
(С)
f
(%)
Тe
(С)
Тes
(С)
Комфортность P
(гПа)
Po
(гПа)
Тmin
(С)
Tmax
(С)
R
(мм)
R24
(мм)
S
(см)
12 12.06 С 2 20 км 8/4 1000 м
[Sc Ac trans]
+11.7 -0.3 44 +11 +15 1028.1 1022.7
15 12.06 С 1 20 км 6/4 1000 м
[Sc Ac trans]
+12.6 -0.4 41 +13 +15 1028.2 1022.8
18 12.06 СВ 1 20 км 3/0
[Ac trans]
+9.6 +0.5 53 +10 +10 1028.9 1023.4 +13.6
21 12.06 штиль 0 20 км 1/0
[Ac trans]
+1.5 +0.2 91 0 0 1030.2 1024.6
00 13.06 штиль 0 20 км 1/0
[Ac trans]
+0.4 -0.6 93 -1 -1 1031.5 1025.8
03 13.06 штиль 0 20 км 6/0
[Ci fib]
+6.7 +2.3 73 +6 +8 1031.6 1026.1 -0.6
06 13.06 ЮЗ 1 20 км 5/0
[Ci fib]
+11.6 +1.4 50 +12 +21 1031.5 1026.1 -0.6
09 13.06 З 1 20 км 8/0
[Ci fib]
+15.1 +0.5 37 +16 +29 опасность
простуды
1030.3 1024.9
12 13.06 СЗ 1 20 км 8/0
[Ac trans Ci fib]
+17.4 +0.8 33 +18 +28 1027.9 1022.6
15 13.06 ЮЗ 1 20 км 8/0
[Ac trans Ci fib]
+16.7 +1.1 35 +18 +21 1026.0 1020.7
18 13.06 штиль 0 20 км 9/0
[Ac trans]
+12.6 +6.5 66 +12 +12 1023.9 1018.5 +18.0
21 13.06 штиль 0 10 км 10/0
[As op]
+8.9 +6.1 83 +8 +8 1023.2 1017.8
00 14.06 штиль 0 20 км 10/0
[As op]
+8.5 +5.5 81 +8 +8 1022.4 1017.0
03 14.06 ЮЗ 1 20 км 10/0
[As op]
+9.1 +6.5 84 +8 +9 1021.0 1015.6 +8.1
06 14.06 СВ 1 20 км 3/0
[Ac trans]
+16.3 +2.1 38 +17 +25 1019.4 1014.1 +8.1
09 14.06 В 1 20 км 1/1 1000 м
[Cu hum]
+19.1 +2.5 33 +20 +35 опасность
простуды
1018.3 1013.1
12 14.06 З 3 20 км 5/4 1000 м
[Cu hum Ci fib]
+20.1 +5.2 38 +21 +26 комфорт 1017.5 1012.3
15 14.06 З 2 20 км 3/1 1000 м
[Cu hum Ci fib]
+19.6 +4.7 37 +21 +24 комфорт 1016.1 1010.9
18 14.06 З 1 20 км 3/0
[Ac trans Ci fib]
+15.4 +5.5 52 +16 +16 1015.8 1010.5 +21.2
21 14.06 штиль 0 20 км 3/0
[Ac trans Ci fib]
+6.1 +4.7 91 +5 +5 1015.5 1010.0
00 15.06 штиль 0 20 км 1/0
[Ac trans]
+3.5 +2.8 95 +2 +2 1014.9 1009.4
03 15.06 штиль 0 20 км 5/0
[Ac trans Ci fib]
+11.5 +7.1 74 +11 +13 1013.6 1008.3 +3.1
06 15.06 З 2 20 км 8/0
[Ac trans Ci fib]
+17.8 +10.0 60 +18 +23 1012.8 1007.6 +3.1
09 15.06 З 3 20 км 4/3 1000 м
[Cu med, cong Ac trans Ci fib]
+19.5 +10.3 55 +21 +28 комфорт 1012.8 1007.6
12 15.06 СЗ 2 20 км 8/4 1000 м
[Sc Ac trans Ci fib]
+21.6 +10.2 48 +23 +28 комфорт 1012.6 1007.4
15 15.06 В 1 20 км в посл. час ливневой дождь 8/4 600 м
[Cb cap Ac trans]
+15.9 +13.7 87 +17 +18 1012.6 1007.4 6
18 15.06 штиль 0 20 км {ливн. осадки} 1/1 1000 м
[Sc]
+16.0 +14.0 88 +16 +16 1012.5 1007.3 +22.3 6
21 15.06 СВ 1 20 км 1/0
[Ac trans]
+10.0 +7.7 86 +10 +10 1013.4 1008.0
00 16.06 штиль 0 20 км 4/0
[Ac trans]
+6.8 +6.0 95 +6 +6 1013.5 1008.1
03 16.06 штиль 0 20 км 3/0
[Ac trans Ci fib]
+11.8 +7.8 76 +11 +13 1012.4 1007.1 +6.1
06 16.06 ЮЗ 1 20 км 5/3 1000 м
[Sc Ac trans]
+18.5 +12.6 68 +20 +26 1011.3 1006.1 +6.1
09 16.06 З 3 20 км 4/3 1000 м
[Cu med, cong Ci fib]
+21.6 +12.3 55 +24 +32 комфорт 1010.2 1005.1
12 16.06 З 3
{10}
20 км 4/3 1000 м
[Cu med, cong Ci fib]
+24.4 +10.5 42 +26 +32 жарко 1009.5 1004.4
15 16.06 З 2 20 км 4/1 1000 м
[Cu med, cong Ci fib]
+24.5 +9.4 38 +25 +28 комфорт 1008.8 1003.7
18 16.06 З 1 20 км 6/0
[Ci fib]
+20.4 +10.2 52 +23 +23 комфорт 1008.9 1003.8 +24.8
21 16.06 З 1 20 км 4/0
[Ac trans Ci fib]
+14.1 +10.8 81 +14 +14 1009.2 1003.9
00 17.06 штиль 0 20 км 3/0
[Ac trans]
+9.7 +8.9 95 +9 +9 1009.4 1004.1
03 17.06 штиль 0 20 км 6/0
[Ac trans]
+13.4 +11.1 86 +13 +15 1009.3 1004.0 +8.5
06 17.06 Ю 1 20 км 6/4 1000 м
[Cu hum Ac trans]
+19.3 +12.7 66 +22 +26 комфорт 1009.2 1004.0 +8.5
09 17.06 З 2 20 км 3/3 1000 м
[Cu hum]
+23.6 +10.8 44 +25 +34 комфорт 1008.7 1003.6
12 17.06 СЗ 4 20 км 3/3 1000 м
[Cu med, cong]
+25.4 +8.0 33 +26 +31 жарко 1008.3 1003.2
15 17.06 З 3 20 км 8/3 1000 м
[Cu med, cong Ac trans]
+24.1 +9.7 40 +25 +26 комфорт 1008.4 1003.3
18 17.06 З 1 20 км 8/0
[Ac trans Ci fib]
+19.5 +12.7 65 +22 +22 комфорт 1008.1 1002.9 +26.2
21 17.06 штиль 0 20 км 6/0
[Ci fib]
+12.3 +11.3 94 +12 +12 1008.0 1002.7
00 18.06 штиль 0 20 км 8/0
[Ac trans]
+10.9 +10.3 96 +10 +10 1007.9 1002.6
03 18.06 штиль 0 20 км 8/3 1000 м
[Sc Ac trans]
+15.9 +13.0 83 +16 +17 1007.6 1002.4 +10.5
06 18.06 ЮЗ 1 20 км 9/3 1000 м
[Sc Ac trans Ci fib]
+19.5 +14.1 71 +22 +26 комфорт 1007.5 1002.4 +10.5
09 18.06 З 2 20 км 9/3 1000 м
[Sc Ac trans]
+21.3 +14.6 66 +24 +29 комфорт 1008.3 1003.2
12 18.06 З 4 20 км 4/3 1000 м
[Cb cap Ci fib]
+24.3 +12.4 47 +26 +31 жарко 1007.7 1002.6
15 18.06 З 3 20 км 3/1 600 м
[Cb cap Ci fib]
+24.9 +10.6 41 +26 +29 жарко 1007.3 1002.2
18 18.06 З 1
{12}
20 км в посл. час гроза {ливн. осадки} 8/4 600 м
[Cb cap Ac trans]
+17.0 +14.7 86 +18 +18 1009.0 1003.8 +25.8 0.5
21 18.06 штиль 0 20 км 3/1 600 м
[Cb cap Ac trans]
+12.6 +12.0 96 +12 +12 1010.2 1004.9
00 19.06 штиль 0 500 м туман ?/? +10.4 +9.8 96 +10 +10 1010.7 1005.4
03 19.06 В 1 20 км в посл. час туман 4/0
[Ci fib]
+14.4 +13.8 96 +15 +17 1010.7 1005.4 +10.0 0.5
06 19.06 ЮЗ 1 20 км {туман} 9/0
[Ci fib]
+21.5 +13.6 61 +24 +32 комфорт 1010.4 1005.3 +10.0
09 19.06 З 3 20 км 9/0
[Ac trans Ci fib]
+23.8 +10.3 42 +25 +34 комфорт 1010.8 1005.7

 

Местоположение метеостанции Пудож (Карелия, Россия): широта 61.80 долгота 36.52 высота над уровнем моря 44 м.

В архиве по умолчанию представлена погода в Пудоже за последнюю неделю. Архивные данные за месяц целиком и за предыдущие месяцы, начиная с января 2011 года, Вы можете получить, выбрав интересующий диапазон дат из раскрывающегося списка и нажав кнопку "Ввод!".


*Определитесь, кто Вы:
робот инопланетянин человек

Внимание! Время в таблицах - всемирное. Для получения местного времени необходимо прибавить поправку, которая равна 3 ч.

Смотрите также архив погоды в соседних городах и на ближайших метеорологических станциях:

Погода в Маячном (Карелия, Россия) (67 км)
Погода в Вытегре (Вологодская область, Россия) (87 км)
Погода в Вознесенье (Ленинградская область, Россия) (103 км)
Погода в Петрозаводске (Карелия, Россия) (118 км)
Погода в Кондопоге (Карелия, Россия) (123 км)
Погода в Каргополе (Архангельская область, Россия) (132 км)
Погода в Конево (Архангельская область, Россия) (150 км)
Погода в Пряже (Ленинградская область, Россия) (153 км)
Погода в Винницах (Ленинградская область, Россия) (160 км)
Погода в Медвежьегорске (Карелия, Россия) (165 км)

Пояснения к столбцам:

Ветер - указаны скорость ветра в м/с - средняя за 10 мин, порывы в срок и между сроками (в фигурных скобках) и направление, откуда дует ветер: С - северный, СВ - северо-восточный, В - восточный, ЮВ - юго-восточный, Ю - южный, ЮЗ - юго-западный, З - западный, СЗ - северо-западный.
Видимость - горизонтальная дальность видимости в метрах или километрах. При видимости от 1 до 10 км при отсутствии осадков обычно наблюдается дымка, при ухудшении видимости до 1 км и менее - туман. В сухую погоду видимость может ухудшаться дымом, пылью или мглою.
Явления - указаны атмосферные явления, наблюдавшиеся в срок или в последний час перед сроком; фигурными скобками обозначены явления, наблюдавшиеся между сроками (за 1-3 часа до срока); квадратными скобками обозначены град или гололедные отложения с указанием их диаметра в мм.
Облачность - указаны через наклонную черту общая и нижняя облачность в баллах и высота нижней границы облаков в метрах; квадратными скобками обозначены формы облаков: Ci - перистые, Cs - перисто-слоистые, Cc - перисто-кучевые, Ac - высококучевые, As - высокослоистые, Sc - слоисто-кучевые, Ns - слоисто-дождевые, Cu - кучевые, Cb - кучево-дождевые. Подробнее классификацию облаков см. в Атласе облаков (PDF).
T - Температура воздуха - температура, измеренная на высоте 2 м над землей.
Td - Температура точки росы - температура, при понижении до которой содержащийся в воздухе водяной пар достигнет насыщения.
f - Относительная влажность воздуха - влажноcть воздуха, измеренная на высоте 2 м над землей.
Te - Эффективная температура - температура, которую ощущает одетый по сезону человек в тени. Характеристика душности погоды. При расчете учитывается влияние влажности воздуха и скорости ветра на теплоощущения человека.
Tes - Эффективная температура на солнце - температура, которую ощущает человек, с поправкой на солнечный нагрев. Характеристика знойности погоды. Зависит от высоты солнца над горизонтом, облачности и скорости ветра. Ночью, в пасмурную погоду, а также при ветре 12 м/с и более поправка равна нулю.
P - Атмосферное давление - приведенное к уровню моря атмосферное давление.
Po - Атмосферное давление - измеренное на уровне метеостанции атмосферное давление.
Tmin - Минимальная температура - минимум температуры воздуха на высоте 2 м над землей.
Tmax - Максимальная температура - максимум температуры воздуха на высоте 2 м над землей.
R - Количество осадков - Количество выпавших осадков за период времени, мм. При наведении курсора мыши на число - период времени, за который выпало указанное количество осадков.
R24 - Количество осадков - Количество выпавших осадков за 24 часа, мм.
S - Снежный покров - Высота снежного покрова, см. При наведении курсора мыши на число - состояние снежного покрова и степень покрытия местности в баллах.